Location: East Arcadia
(34.1056°N, 118.0176°W)
Time: 00:59:43
(UTC+00:00)

NOAA 11 - Pass Details

Date: 01 April 2023
Orbit: 833 x 848 km, 98.5° (Epoch: 08 June)

Event Time Altitude Azimuth Distance (km) Brightness Sun altitude
Rises 12:23:58 0° 9° (N) 3,391 7.7 -16.1°
Reaches altitude 10° 12:26:21 10° 6° (N) 2,456 6.9 -15.7°
Maximum altitude 12:31:44 67° 286° (WNW) 910 4.1 -14.6°
Drops below altitude 10° 12:37:07 10° 204° (SSW) 2,451 6.2 -13.5°
Enters shadow 12:39:21 - 202° (SSW) 3,327 6.9 -13.1°
